Weather History for Jacksonville, FL

Change the Weather History Date:

Monday, April 28, 2014

  Actual Average Record
Temperature  
Mean Temperature 80 °F 70 °F  
Max Temperature 91 °F 82 °F 94 °F (1991)
Min Temperature 69 °F 57 °F 43 °F (1977)
Degree Days  
Heating Degree Days 0 1  
Month to date heating degree days 27 54  
Since 1 July heating degree days 1303 1343  
Cooling Degree Days 15 5  
Month to date cooling degree days 116 102  
Year to date cooling degree days 174 185  
Growing Degree Days 30 (Base 50)    
Moisture  
Dew Point 68 °F    
Average Humidity 71    
Maximum Humidity 100    
Minimum Humidity 41    
Precipitation  
Precipitation 0.00 in 0.07 in 2.65 in (1964)
Month to date precipitation 5.61 2.50  
Year to date precipitation 19.97 12.94  
Snow  
Snow 0.00 in 0.00 in 0.00 in (2002)
Month to date snowfall 0.0 0.0  
Since 1 July snowfall 0.0 T  
Snow Depth 0.00 in    
Sea Level Pressure  
Sea Level Pressure 29.92 in    
Wind  
Wind Speed 8 mph (South)    
Max Wind Speed 17 mph    
Max Gust Speed 22 mph    
Visibility 10 miles    
Events      
T = Trace of Precipitation, MM = Missing Value Source: NWS Daily Summary

Daily Weather History Graph

Daily Weather History Graph

Search for Another Location

Airport:

Trip Planner

Search our weather history database for the weather conditions in past years. The results will help you decide how hot, cold, wet, or windy it might be!

Date:

Astronomy

Apr. 28, 2014 Rise Set
Actual Time 6:45 AM EDT 8:02 PM EDT
Civil Twilight 6:20 AM EDT 8:28 PM EDT
Nautical Twilight 5:50 AM EDT 8:58 PM EDT
Astronomical Twilight 5:19 AM EDT 9:29 PM EDT
Moon 6:19 AM EDT (4/28) 7:41 PM EDT (4/28)
Length of Visible Light 14h 07m
Length of Day
13h 17m
Waning Crescent, 0% of the Moon is Illuminated
Apr 28
Waning Crescent
Apr 29
New
May 6
First Quarter
May 14
Full
May 21
Last Quarter

Hourly Weather History & Observations

Time (EDT) Temp. Heat Index Dew Point Humidity Pressure Visibility Wind Dir Wind Speed Gust Speed Precip Events Conditions
12:56 AM 71.1 °F - 66.9 °F 87% 29.97 in 10.0 mi SSE 6.9 mph - N/A   Partly Cloudy
1:56 AM 72.0 °F - 68.0 °F 87% 29.94 in 10.0 mi SSE 8.1 mph - N/A   Mostly Cloudy
2:56 AM 71.1 °F - 68.0 °F 90% 29.94 in 10.0 mi SSE 4.6 mph - N/A   Mostly Cloudy
3:56 AM 70.0 °F - 68.0 °F 93% 29.93 in 10.0 mi South 4.6 mph - N/A   Scattered Clouds
4:56 AM 71.1 °F - 69.1 °F 93% 29.93 in 10.0 mi South 6.9 mph - N/A   Scattered Clouds
5:56 AM 69.1 °F - 68.0 °F 96% 29.93 in 8.0 mi SSE 5.8 mph - N/A   Partly Cloudy
6:56 AM 69.1 °F - 69.1 °F 100% 29.95 in 7.0 mi Calm Calm - N/A   Scattered Clouds
7:56 AM 73.0 °F - 71.1 °F 93% 29.96 in 7.0 mi SSE 4.6 mph - N/A   Mostly Cloudy
8:56 AM 75.9 °F - 71.1 °F 85% 29.96 in 10.0 mi South 10.4 mph - N/A   Mostly Cloudy
9:56 AM 80.6 °F 83.9 °F 69.8 °F 70% 29.95 in 10.0 mi SW 12.7 mph - N/A   Scattered Clouds
10:56 AM 82.9 °F 86.5 °F 69.1 °F 63% 29.96 in 10.0 mi SSW 11.5 mph 21.9 mph N/A   Scattered Clouds
11:56 AM 84.9 °F 88.8 °F 69.1 °F 59% 29.96 in 10.0 mi SSW 13.8 mph - N/A   Scattered Clouds
12:56 PM 87.1 °F 89.9 °F 66.9 °F 51% 29.94 in 10.0 mi SW 12.7 mph - N/A   Scattered Clouds
1:56 PM 89.1 °F 92.1 °F 66.9 °F 48% 29.92 in 10.0 mi SSW 11.5 mph - N/A   Scattered Clouds
2:56 PM 87.1 °F 88.9 °F 64.9 °F 48% 29.91 in 10.0 mi SSW 10.4 mph - N/A   Scattered Clouds
3:56 PM 89.1 °F 90.3 °F 64.0 °F 43% 29.90 in 10.0 mi SW 8.1 mph - N/A   Scattered Clouds
4:56 PM 90.0 °F 91.3 °F 64.0 °F 42% 29.88 in 10.0 mi West 5.8 mph - N/A   Scattered Clouds
5:56 PM 89.1 °F 89.3 °F 62.1 °F 40% 29.88 in 10.0 mi WSW 8.1 mph - N/A   Scattered Clouds
6:56 PM 84.0 °F 87.8 °F 69.1 °F 61% 29.87 in 10.0 mi SE 6.9 mph - N/A   Scattered Clouds
7:56 PM 81.0 °F 83.8 °F 68.0 °F 65% 29.88 in 10.0 mi SE 8.1 mph - N/A   Mostly Cloudy
8:56 PM 77.0 °F - 68.0 °F 74% 29.88 in 10.0 mi SE 9.2 mph - N/A   Mostly Cloudy
9:56 PM 75.9 °F - 68.0 °F 76% 29.90 in 10.0 mi SE 8.1 mph - N/A   Partly Cloudy
10:56 PM 73.9 °F - 66.9 °F 79% 29.91 in 10.0 mi SSE 8.1 mph - N/A   Scattered Clouds
11:56 PM 73.9 °F - 66.9 °F 79% 29.91 in 10.0 mi SSE 6.9 mph - N/A   Scattered Clouds